Terug naar catalogus

STARLINK-35998

ActiefCommunicatieVLEO
NORAD 68055·PAYLOAD·🇺🇸 United States

Gelanceerd Mar 2, 2026 vanaf Vandenberg Space Force Base

Loading…

Volgende Passages (komende 24 uur)

TLE

VersSource: CelesTrak SupGP

Epoch: Sep 15, 2026, 04:21 UTC

1 68055C 26041R   26258.18173611 -.00051257  00000+0 -15144-2 0  2584
2 68055  53.1583 246.4879 0001404  88.5901 346.3896 15.34416162    14

Volg STARLINK-35998 in realtime met AllMySat

Download on the App Store